Location: Stara Lesna
(49.1528°N, 20.2911°E)
Time: 10:27:03
(UTC+02:00)

Cosmos 1812 - Pass Details

Date: 21 September 2019
Orbit: 516 x 523 km, 82.5° (Epoch: 14 October)

Event Time Altitude Azimuth Distance (km) Brightness Sun altitude
Exits shadow 04:35:45 19° 184° (S) 1,280 4.4 -17.9°
Maximum altitude 04:38:25 82° 100° (E) 534 2.7 -17.5°
Drops below altitude 10° 04:42:18 10° 11° (NNE) 1,767 5.8 -16.9°
Sets 04:44:27 0° 11° (N) 2,659 6.8 -16.6°
